Regional Weather Roundup
Issued by NWS

Home | Current Version | Previous Version | Graphics & Text | Print | Product List | Glossary On
Versions: 1 2 3 4 5 6 7 8 9 10 11 12 13 14 15 16 17 18 19 20 21 22 23 24 25 26 27 28 29 30 31 32 33 34 35 36 37 38 39 40 41 42 43 44 45 46 47 48 49 50
359
ASUS43 KMPX 281110
RWRMN
WEATHER ROUNDUP FOR MINNESOTA
NATIONAL WEATHER SERVICE TWIN CITIES/CHANHASSEN MN
500 AM CST TUE FEB 28 2017


NOTE: "FAIR" INDICATES FEW OR NO CLOUDS BELOW 12,000 FEET WITH NO
SIGNIFICANT WEATHER AND/OR OBSTRUCTIONS TO VISIBILITY. N/A MEANS
CURRENT SKY AND/OR WEATHER CONDITIONS ARE NOT AVAILABLE.

MNZ060>063-068>070-281200-
   Twin Cities Metro

CITY           SKY/WX    TMP DP  RH WIND       PRES   REMARKS
TWIN CITIES    CLOUDY    37  30  75 VRB5      29.72F
ST PAUL        CLOUDY    36  32  85 CALM      29.74S
CRYSTAL        CLOUDY    36  27  69 N8        29.73R
BLAINE         CLOUDY    37  30  75 N7        29.75R
LAKEVILLE        N/A     32  30  93 E3        29.71F
EDEN PRAIRIE   CLOUDY    37  30  75 N7        29.71F
SOUTH ST PAUL  MOCLDY    39  32  75 CALM      29.72F
LAKE ELMO      CLOUDY    36  32  87 CALM      29.74S
$$
MNZ001>005-007-008-013>017-022>024-027-028-281200-
   Northwest Minnesota

CITY           SKY/WX    TMP DP  RH WIND       PRES   REMARKS
BEMIDJI        CLOUDY    21  14  75 NE7       29.82S WCI  12
HALLOCK        PTCLDY     7   1  78 N9        29.96F WCI  -7
ROSEAU         PTCLDY     3  -2  78 N7        29.94R WCI  -9
WARROAD        CLOUDY     9   3  78 N9        29.93S WCI  -5
THIEF RVR FALL CLOUDY    18  14  84 N12       29.90R WCI   5
CROOKSTON      CLOUDY    19  16  86 N8        29.91S WCI   9
FOSSTON        CLOUDY    18  14  86 N9        29.86R WCI   6
DETROIT LAKES  CLOUDY    27  19  74 NE9       29.79F WCI  17
MOORHEAD       PTCLDY    19  18  93 N16       29.84F WCI   5
PARK RAPIDS    CLOUDY    25  13  60 N10       29.78F WCI  15
MAHNOMEN       FAIR      20  17  84 N10       29.82R WCI   9
$$
MNZ006-009>011-018-025>026-281200-
   North Central Minnesota

CITY           SKY/WX    TMP DP  RH WIND       PRES   REMARKS
BAUDETTE       CLOUDY    17  12  80 N7        29.89F WCI   8
FLAG ISLAND    PTCLDY     9   3  78 N9        29.94S WCI  -5
INTL FALLS     CLOUDY    20  16  84 NE8       29.89R WCI  10
WASKISH        CLOUDY    21  18  86 NE9       29.87S WCI  11
BIG FORK       CLOUDY    25  19  80 N5        29.84S WCI  19
LONGVILLE      CLOUDY    27  21  80 N3        29.80S
GRAND RAPIDS   CLOUDY    27  22  81 N7        29.80F WCI  19
CRANE LAKE     CLOUDY    21  19  93 N3        29.89R
ORR            CLOUDY    21  18  86 CALM      29.82S
COOK           CLOUDY    25  21  86 NE5       29.83S WCI  19
WALKER         FAIR      23  18  80 N8        29.80F WCI  14
$$
MNZ012-019>021-037-281200-
   Northeast Minnesota

CITY           SKY/WX    TMP DP  RH WIND       PRES   REMARKS
DULUTH         LGT SNOW  28  27  96 E6        29.79F FOG     WCI  22
ELY            CLOUDY    25  23  93 NE5       29.82R WCI  19
HIBBING        CLOUDY    28  25  88 NE3       29.79S
EVELETH        CLOUDY    30  28  92 CALM      29.81S
DULUTH HARBOR  MIX PCPN  32  30  93 CALM      29.84F
TWO HARBORS    LGT SNOW  30  27  86 CALM      29.80S
SILVER BAY     CLOUDY    28  27  93 CALM      29.81S
GRAND MARAIS     N/A     30  28  92 NE5       29.86R WCI  25
G MARAIS ARPRT LGT SNOW  21  18  86 CALM      29.81R VSB 3/4
$$
MNZ029>031-032-039>041-046>048-054>057-064-281200-
   West Central Minnesota

CITY           SKY/WX    TMP DP  RH WIND       PRES   REMARKS
FERGUS FALLS   CLOUDY    27  21  80 N8        29.80F WCI  18
WHEATON        MOCLDY    27  21  80 N12       29.79S WCI  16
MORRIS         CLOUDY    30  28  93 N7        29.73F FOG     WCI  23
ALEXANDRIA     CLOUDY    33  29  85 NE8       29.73F WCI  26
ELBOW LAKE     CLOUDY    29  27  90 N7        29.75F WCI  22
WADENA         CLOUDY    27  21  80 N9        29.76S WCI  17
GLENWOOD       CLOUDY    32  30  93 NE8       29.73F WCI  25
APPLETON       LGT SNOW  32  30  93 N6        29.74S WCI  26
BENSON         LGT SNOW  36  28  75 NE5       29.75S
ORTONVILLE     LGT SNOW  27  25  93 N13       29.75S WCI  16
MADISON        LGT SNOW  32  32 100 N8        29.75R WCI  25
WILLMAR        FAIR      34  30  86 N5        29.74S WCI  30
$$
MNZ033>034-036-042>043-049>051-058-059-281200-
   Central Minnesota

CITY           SKY/WX    TMP DP  RH WIND       PRES   REMARKS
ST CLOUD       CLOUDY    35  27  72 NE8       29.75F WCI  29
SAUK CENTRE    CLOUDY    32  31  95 NE5       29.74F WCI  27
PAYNESVILLE    CLOUDY    33  30  89 NE7       29.74R WCI  27
AITKIN         FLURRIES  34  27  75 N5        29.76F WCI  30
PINE RIVER     CLOUDY    27  21  80 N9        29.81F WCI  17
BRAINERD       CLOUDY    30  27  88 NE3       29.76F
STAPLES        CLOUDY    28  25  86 N5        29.75F WCI  23
LONG PRAIRIE   FLURRIES  32  30  93 N3        29.75S
LITTLE FALLS   CLOUDY    32  30  93 CALM      29.76S
LITCHFIELD     PTCLDY    34  30  86 NE6       29.73S WCI  29
BUFFALO        CLOUDY    33  29  86 N5        29.74F WCI  29
MAPLE LAKE     CLOUDY    33  30  87 N6        29.75S WCI  28
HUTCHINSON     CLOUDY    35  32  88 NE7       29.73S WCI  29
$$
MNZ037-044-045-052-053-281200-
   East Central Minnesota

CITY           SKY/WX    TMP DP  RH WIND       PRES   REMARKS
PRINCETON      MOCLDY    34  28  80 N6        29.75F WCI  29
MORA           MOCLDY    32  27  80 NE3       29.79S
CAMBRIDGE      CLOUDY    36  27  69 NE7       29.74F
RUSH CITY      CLOUDY    33  26  77 N6        29.77S WCI  27
MOOSE LAKE     LGT SNOW  30  28  93 CALM      29.77F
HINCKLEY       CLOUDY    32  28  86 N8        29.79S WCI  25
CLOQUET        LGT SNOW  28  27  93 E3        29.79F
MCGREGOR       CLOUDY    32  30  93 CALM      29.78F
$$
MNZ071>073-080-081-089-090-097-098-281200-
   Southwest Minnesota

CITY           SKY/WX    TMP DP  RH WIND       PRES   REMARKS
MONTEVIDEO     MOCLDY    32  30  93 N3        29.75S
GRANITE FALLS  MOCLDY    33  32  94 NW8       29.74R WCI  27
CANBY          LGT SNOW  31  30  95 CALM      29.75R
MARSHALL       CLOUDY    31  30  96 NW12      29.73R WCI  22
REDWOOD FALLS  CLOUDY    33  29  85 N6        29.69F WCI  28
OLIVIA         MOCLDY    34  32  93 NE9       29.70F WCI  26
PIPESTONE      CLOUDY    34  28  80 NE12      29.68R WCI  25
WINDOM         CLOUDY    30  30 100 N9        29.68R WCI  22
WORTHINGTON    CLOUDY    32  30  92 N9        29.67R WCI  24
JACKSON        CLOUDY    32  30  93 CALM      29.65F
TRACY          CLOUDY    32  31  96 NW9       29.72R FOG     WCI  24
SLAYTON        CLOUDY    31  30  96 N10       29.70R FOG     WCI  22
$$
MNZ065>067-074>077-082>085-091>093-281200-
   South Central Minnesota

CITY           SKY/WX    TMP DP  RH WIND       PRES   REMARKS
MANKATO          N/A     36  32  85 E6        29.68F
NEW ULM        CLOUDY    34  28  80 N5        29.70R WCI  30
ST JAMES       PTCLDY    32  30  93 CALM      29.69R
FAIRMONT       PTCLDY    32  29  88 SE5       29.67S WCI  27
GLENCOE        MOCLDY    36  33  90 N7        29.72S
FARIBAULT      CLOUDY    34  32  93 CALM      29.70F
OWATONNA       CLOUDY    37  34  87 SE9       29.68F
WASECA         CLOUDY    36  32  87 SE12      29.69F
ALBERT LEA     PTCLDY    39  36  87 SE12      29.68S
$$
MNZ078>079-086>088-094>096-281200-
   Southeast Minnesota

CITY           SKY/WX    TMP DP  RH WIND       PRES   REMARKS
ROCHESTER      CLOUDY    37  34  89 SE13      29.69F
RED WING       CLOUDY    39  30  70 E3        29.73F
STANTON        CLOUDY    38  32  81 CALM      29.70F
WINONA         CLOUDY    37  34  87 S3        29.76S
AUSTIN         CLOUDY    37  34  87 SE10      29.68F
PRESTON        CLOUDY    38  34  85 SE9       29.71F
$$
ABBREVIATIONS USED IN REMARKS
   TC - TEMPERATURES IN CELSIUS
  WCI - WIND CHILL INDEX
   HX - HEAT INDEX
  VSB - VISIBILITY
$$




USA.gov is the U.S. government's official web portal to all federal, state and local government web resources and services.